RYR55KD LFOB-EIDW

Flight info

Callsign RYR55KD
Flight time N/A
Altitude 40000
Route ATREX1M/12 ATREX DCT VESAN DCT RATUK DCT SOVAT L613 SANDY L722 ICTAM T421 DIDZA DCT CESQA DCT BIBPE DCT OKTAD DCT MEDOG DCT KRAGY DCT PEMOB M17 VATRY VATRY4L
Aircraft B38M/M-SDE1FGHILORVWXY/HB1

Departure

Time 2026-04-24 19:08
Airport Beauvais-Tillé airport (LFOB)

Arrival

Time N/A
Airport Dublin Airport (EIDW)
Time Latitude Longitude Altitude Speed Heading
2026-04-24 18:54 49.45780 2.11220 349 ft 0 kts 34°
2026-04-24 19:00 49.45769 2.11208 358 ft 2 kts 34°
2026-04-24 19:00 49.45755 2.11194 356 ft 2 kts 33°
2026-04-24 19:01 49.45741 2.11180 354 ft 2 kts 27°
2026-04-24 19:01 49.45727 2.11181 352 ft 2 kts 302°
2026-04-24 19:01 49.45718 2.11202 359 ft 2 kts 303°
2026-04-24 19:01 49.45714 2.11211 359 ft 0 kts 303°
2026-04-24 19:05 49.45714 2.11210 359 ft 0 kts 303°
2026-04-24 19:05 49.45722 2.11191 354 ft 5 kts 303°
2026-04-24 19:06 49.45763 2.11096 355 ft 16 kts 303°
2026-04-24 19:06 49.45777 2.10986 352 ft 6 kts 227°
2026-04-24 19:06 49.45738 2.10949 355 ft 8 kts 210°
2026-04-24 19:06 49.45683 2.10902 359 ft 10 kts 209°
2026-04-24 19:07 49.45617 2.10890 360 ft 10 kts 151°
2026-04-24 19:07 49.45597 2.10924 359 ft 0 kts 122°
2026-04-24 19:07 49.45502 2.11145 347 ft 67 kts 123°
2026-04-24 19:07 49.45091 2.12093 337 ft 143 kts 123°
2026-04-24 19:08 49.44429 2.13593 567 ft 185 kts 123°
2026-04-24 19:08 49.43688 2.15320 1290 ft 198 kts 109°
2026-04-24 19:08 49.43704 2.17391 2152 ft 208 kts 64°
2026-04-24 19:08 49.44801 2.19064 2688 ft 242 kts 31°
2026-04-24 19:09 49.46459 2.19859 3624 ft 257 kts
2026-04-24 19:09 49.48237 2.19785 4902 ft 260 kts 356°
2026-04-24 19:09 49.50070 2.20003 5733 ft 270 kts 21°
2026-04-24 19:09 49.51718 2.21324 6888 ft 269 kts 29°
2026-04-24 19:10 49.53441 2.22602 7801 ft 278 kts 25°
2026-04-24 19:10 49.55226 2.23779 8874 ft 281 kts 22°
2026-04-24 19:10 49.57060 2.24903 9899 ft 286 kts 21°
2026-04-24 19:10 49.58943 2.26001 10720 ft 296 kts 20°
2026-04-24 19:11 49.60933 2.27132 11309 ft 312 kts 20°
2026-04-24 19:11 49.63014 2.28296 12033 ft 321 kts 20°
2026-04-24 19:11 49.65126 2.29467 12982 ft 324 kts 19°
2026-04-24 19:11 49.67265 2.30647 13864 ft 328 kts 19°
2026-04-24 19:12 49.69428 2.31839 14680 ft 332 kts 19°
2026-04-24 19:12 49.71296 2.32870 15257 ft 337 kts 19°
2026-04-24 19:12 49.73518 2.34094 16002 ft 341 kts 18°
2026-04-24 19:12 49.75784 2.35343 16655 ft 348 kts 18°
2026-04-24 19:13 49.77339 2.35950 17098 ft 350 kts
2026-04-24 19:13 49.80560 2.35449 18004 ft 352 kts 340°
2026-04-24 19:13 49.82824 2.34247 18614 ft 357 kts 339°
2026-04-24 19:13 49.85166 2.32962 19205 ft 360 kts 339°
2026-04-24 19:14 49.87532 2.31635 19812 ft 363 kts 338°
2026-04-24 19:14 49.89913 2.30277 20402 ft 366 kts 338°
2026-04-24 19:14 49.92317 2.28894 20995 ft 370 kts 338°
2026-04-24 19:14 49.94739 2.27493 21585 ft 373 kts 338°
2026-04-24 19:15 49.97175 2.26079 22212 ft 375 kts 338°
2026-04-24 19:15 49.99619 2.24660 22843 ft 377 kts 338°
2026-04-24 19:15 50.02090 2.23224 23427 ft 380 kts 338°
2026-04-24 19:15 50.04573 2.21779 23972 ft 383 kts 338°
2026-04-24 19:16 50.09595 2.18850 24950 ft 388 kts 338°
2026-04-24 19:16 50.12131 2.17369 25440 ft 390 kts 338°
2026-04-24 19:16 50.14688 2.15873 25915 ft 393 kts 338°
2026-04-24 19:17 50.17256 2.14371 26384 ft 396 kts 338°
2026-04-24 19:17 50.19841 2.12854 26864 ft 398 kts 337°
2026-04-24 19:17 50.22442 2.11329 27311 ft 401 kts 337°
2026-04-24 19:17 50.25069 2.09785 27754 ft 404 kts 337°
2026-04-24 19:18 50.27703 2.08236 28201 ft 406 kts 337°
2026-04-24 19:18 50.30339 2.06684 28649 ft 409 kts 337°
2026-04-24 19:18 50.33025 2.05101 29087 ft 411 kts 337°
2026-04-24 19:18 50.35710 2.03500 29495 ft 413 kts 335°
2026-04-24 19:19 50.38158 2.01206 29899 ft 411 kts 318°
2026-04-24 19:19 50.40320 1.98250 30279 ft 414 kts 318°
2026-04-24 19:19 50.42497 1.95366 30631 ft 416 kts 317°
2026-04-24 19:19 50.44698 1.92407 31007 ft 417 kts 317°
2026-04-24 19:20 50.46901 1.89417 31321 ft 420 kts 317°
2026-04-24 19:20 50.49110 1.86406 31654 ft 422 kts 317°
2026-04-24 19:20 50.51331 1.83369 31984 ft 424 kts 317°
2026-04-24 19:20 50.53563 1.80315 32326 ft 426 kts 317°
2026-04-24 19:21 50.55799 1.77249 32647 ft 428 kts 317°
2026-04-24 19:21 50.58042 1.74171 32962 ft 430 kts 316°
2026-04-24 19:21 50.60302 1.71064 33265 ft 432 kts 316°
2026-04-24 19:21 50.62574 1.67938 33607 ft 434 kts 316°
2026-04-24 19:22 50.64079 1.65863 33887 ft 434 kts 316°
2026-04-24 19:22 50.67105 1.61686 34517 ft 430 kts 316°
2026-04-24 19:22 50.69353 1.58576 34907 ft 429 kts 316°
2026-04-24 19:22 50.71595 1.55472 35257 ft 429 kts 316°
2026-04-24 19:23 50.73834 1.52365 35601 ft 428 kts 316°
2026-04-24 19:23 50.76064 1.49270 35936 ft 427 kts 316°
2026-04-24 19:23 50.78297 1.46166 36263 ft 427 kts 316°
2026-04-24 19:23 50.80525 1.43068 36578 ft 427 kts 316°
2026-04-24 19:24 50.82752 1.39965 36884 ft 426 kts 316°
2026-04-24 19:24 50.84978 1.36860 37185 ft 426 kts 316°
2026-04-24 19:24 50.87197 1.33761 37487 ft 426 kts 316°
2026-04-24 19:24 50.89413 1.30662 37796 ft 425 kts 316°
2026-04-24 19:25 50.91623 1.27568 38098 ft 424 kts 316°
2026-04-24 19:25 50.93826 1.24479 38375 ft 423 kts 316°
2026-04-24 19:25 50.96028 1.21387 38635 ft 423 kts 316°
2026-04-24 19:25 50.98230 1.18291 38875 ft 422 kts 316°
2026-04-24 19:26 51.00426 1.15200 39074 ft 422 kts 316°
2026-04-24 19:26 51.02624 1.12103 39233 ft 422 kts 316°
2026-04-24 19:26 51.04785 1.08948 39385 ft 421 kts 309°
2026-04-24 19:26 51.06420 1.05147 39557 ft 415 kts 293°
2026-04-24 19:27 51.07506 1.00903 39670 ft 416 kts 290°
2026-04-24 19:27 51.08544 0.96590 39751 ft 418 kts 289°
2026-04-24 19:27 51.09538 0.92247 39882 ft 418 kts 289°
2026-04-24 19:27 51.10513 0.87884 40001 ft 419 kts 288°
2026-04-24 19:28 51.11408 0.83855 40116 ft 420 kts 290°
2026-04-24 19:28 51.12455 0.79513 40263 ft 419 kts 290°
2026-04-24 19:28 51.14528 0.70819 40277 ft 420 kts 289°
2026-04-24 19:29 51.17611 0.57762 40293 ft 420 kts 289°
2026-04-24 19:30 51.19656 0.49058 40291 ft 420 kts 289°
2026-04-24 19:30 51.21699 0.40326 40293 ft 420 kts 289°
2026-04-24 19:31 51.23737 0.31582 40295 ft 421 kts 289°
2026-04-24 19:31 51.25768 0.22828 40285 ft 421 kts 289°
2026-04-24 19:32 51.27792 0.14071 40275 ft 421 kts 289°
2026-04-24 19:32 51.29811 0.05298 40269 ft 421 kts 289°
2026-04-24 19:33 51.31822 -0.03474 40259 ft 421 kts 289°
2026-04-24 19:33 51.33834 -0.12288 40274 ft 423 kts 289°
2026-04-24 19:34 51.35840 -0.21113 40262 ft 421 kts 289°
2026-04-24 19:34 51.37832 -0.29914 40264 ft 421 kts 289°
2026-04-24 19:35 51.39822 -0.38740 40264 ft 421 kts 289°
2026-04-24 19:35 51.41803 -0.47565 40264 ft 421 kts 289°
2026-04-24 19:36 51.43764 -0.56339 40267 ft 421 kts 289°
2026-04-24 19:36 51.45743 -0.65233 40265 ft 421 kts 289°
2026-04-24 19:37 51.47693 -0.74028 40261 ft 421 kts 289°
2026-04-24 19:37 51.49660 -0.82943 40259 ft 421 kts 288°
2026-04-24 19:38 51.51598 -0.91758 40254 ft 421 kts 288°
2026-04-24 19:38 51.53539 -1.00633 40234 ft 422 kts 288°
2026-04-24 19:39 51.55482 -1.09550 40240 ft 423 kts 288°
2026-04-24 19:39 51.57420 -1.18483 40246 ft 423 kts 288°
2026-04-24 19:40 51.59346 -1.27400 40241 ft 422 kts 288°
2026-04-24 19:40 51.61265 -1.36321 40243 ft 422 kts 288°
2026-04-24 19:41 51.63176 -1.45248 40243 ft 422 kts 288°
2026-04-24 19:41 51.65087 -1.54212 40245 ft 424 kts 288°
2026-04-24 19:42 51.66993 -1.63195 40227 ft 424 kts 288°
2026-04-24 19:42 51.68894 -1.72192 40232 ft 424 kts 288°
2026-04-24 19:43 51.70788 -1.81194 40231 ft 424 kts 288°
2026-04-24 19:43 51.72303 -1.90349 40262 ft 423 kts 282°
2026-04-24 19:44 51.73666 -1.99601 40241 ft 424 kts 283°
2026-04-24 19:44 51.75054 -2.08880 40231 ft 426 kts 282°
2026-04-24 19:45 51.76438 -2.18165 40242 ft 425 kts 282°
2026-04-24 19:45 51.77815 -2.27451 40230 ft 425 kts 282°
2026-04-24 19:46 51.79187 -2.36755 40234 ft 425 kts 282°
2026-04-24 19:46 51.80545 -2.46030 40241 ft 425 kts 282°
2026-04-24 19:47 51.81888 -2.55377 40244 ft 427 kts 281°
2026-04-24 19:47 51.83157 -2.64752 40241 ft 427 kts 281°
2026-04-24 19:48 51.84419 -2.74073 40237 ft 427 kts 281°
2026-04-24 19:48 51.86309 -2.88136 40261 ft 427 kts 281°
2026-04-24 19:49 51.88601 -3.05376 40254 ft 428 kts 281°
2026-04-24 19:50 51.91077 -3.24236 40253 ft 428 kts 280°
2026-04-24 19:51 51.92914 -3.38397 40241 ft 428 kts 280°
2026-04-24 19:52 51.94747 -3.52649 40246 ft 430 kts 279°
2026-04-24 19:52 51.95945 -3.62084 40239 ft 430 kts 279°
2026-04-24 19:53 51.97144 -3.71581 40233 ft 430 kts 279°
2026-04-24 19:54 51.98931 -3.85850 40241 ft 430 kts 280°
2026-04-24 19:54 52.00110 -3.95361 40228 ft 430 kts 279°
2026-04-24 19:55 52.01096 -4.03353 40230 ft 432 kts 279°
2026-04-24 19:55 52.02457 -4.14471 40224 ft 432 kts 279°
2026-04-24 19:56 52.03619 -4.24034 40218 ft 432 kts 279°
2026-04-24 19:56 52.04773 -4.33601 40204 ft 432 kts 279°
2026-04-24 19:56 52.05346 -4.38376 39738 ft 430 kts 279°
2026-04-24 19:57 52.05916 -4.43154 39090 ft 432 kts 278°
2026-04-24 19:57 52.06487 -4.47946 38432 ft 431 kts 278°
2026-04-24 19:57 52.07053 -4.52717 37847 ft 428 kts 278°
2026-04-24 19:57 52.07611 -4.57432 37369 ft 423 kts 278°
2026-04-24 19:58 52.08163 -4.62112 36908 ft 419 kts 278°
2026-04-24 19:58 52.08706 -4.66742 36413 ft 416 kts 278°
2026-04-24 19:58 52.09245 -4.71348 35898 ft 413 kts 278°
2026-04-24 19:58 52.09777 -4.75918 35414 ft 411 kts 278°
2026-04-24 19:59 52.10306 -4.80471 34927 ft 408 kts 278°
2026-04-24 19:59 52.10939 -4.84968 34360 ft 411 kts 287°
2026-04-24 19:59 52.12282 -4.89111 33501 ft 421 kts 304°
2026-04-24 19:59 52.14319 -4.92598 32606 ft 432 kts 319°
2026-04-24 20:00 52.15999 -4.94692 32001 ft 436 kts 319°
2026-04-24 20:00 52.18340 -4.97847 31306 ft 437 kts 317°
2026-04-24 20:00 52.20655 -5.01029 30843 ft 432 kts 317°
2026-04-24 20:00 52.22930 -5.04183 30492 ft 426 kts 317°
2026-04-24 20:01 52.25165 -5.07295 30062 ft 420 kts 317°
2026-04-24 20:01 52.27380 -5.10389 29533 ft 417 kts 317°
2026-04-24 20:01 52.29095 -5.12788 29182 ft 413 kts 317°
2026-04-24 20:01 52.31265 -5.15826 28753 ft 408 kts 317°
2026-04-24 20:02 52.32690 -5.17824 28468 ft 405 kts 317°
2026-04-24 20:02 52.35504 -5.21777 27903 ft 400 kts 317°
2026-04-24 20:02 52.37605 -5.24732 27497 ft 396 kts 317°
2026-04-24 20:02 52.39683 -5.27660 27087 ft 392 kts 317°
2026-04-24 20:03 52.41772 -5.30606 26686 ft 389 kts 317°
2026-04-24 20:03 52.43784 -5.33450 26291 ft 386 kts 317°
2026-04-24 20:03 52.45807 -5.36312 25901 ft 383 kts 317°
2026-04-24 20:03 52.47814 -5.39156 25513 ft 380 kts 317°
2026-04-24 20:04 52.49807 -5.41983 25115 ft 378 kts 317°
2026-04-24 20:04 52.51786 -5.44794 24745 ft 375 kts 317°
2026-04-24 20:04 52.53754 -5.47593 24365 ft 373 kts 317°
2026-04-24 20:04 52.55724 -5.50382 23808 ft 376 kts 316°
2026-04-24 20:05 52.57707 -5.53255 22983 ft 384 kts 316°
2026-04-24 20:05 52.59730 -5.56175 22172 ft 391 kts 317°
2026-04-24 20:05 52.61794 -5.59151 21374 ft 397 kts 317°
2026-04-24 20:05 52.63886 -5.62169 20588 ft 403 kts 317°
2026-04-24 20:06 52.66004 -5.65230 19904 ft 406 kts 317°
2026-04-24 20:06 52.68112 -5.68280 19474 ft 402 kts 317°
2026-04-24 20:06 52.70199 -5.71303 19079 ft 397 kts 317°
2026-04-24 20:06 52.72263 -5.74298 18681 ft 393 kts 317°
2026-04-24 20:07 52.73620 -5.76268 18403 ft 391 kts 317°
2026-04-24 20:07 52.76339 -5.80221 17816 ft 386 kts 318°
2026-04-24 20:07 52.78342 -5.83137 17401 ft 378 kts 318°
2026-04-24 20:07 52.80267 -5.85945 17046 ft 362 kts 318°
2026-04-24 20:08 52.82121 -5.88652 16684 ft 348 kts 318°
2026-04-24 20:08 52.83903 -5.91255 16336 ft 336 kts 318°
2026-04-24 20:08 52.85618 -5.93765 15994 ft 324 kts 318°
2026-04-24 20:08 52.87280 -5.96198 15666 ft 313 kts 318°
2026-04-24 20:09 52.88881 -5.98547 15342 ft 303 kts 319°
2026-04-24 20:09 52.90444 -6.00841 15032 ft 300 kts 319°
2026-04-24 20:09 52.92032 -6.03174 14718 ft 308 kts 319°
2026-04-24 20:09 52.93643 -6.05543 14414 ft 312 kts 319°
2026-04-24 20:10 52.95272 -6.07941 14082 ft 314 kts 319°
2026-04-24 20:10 52.96907 -6.10353 13714 ft 314 kts 319°
2026-04-24 20:10 52.98537 -6.12757 13354 ft 313 kts 318°
2026-04-24 20:10 53.00156 -6.15149 13028 ft 311 kts 318°
2026-04-24 20:11 53.01765 -6.17528 12701 ft 309 kts 318°
2026-04-24 20:11 53.03367 -6.19898 12372 ft 307 kts 318°
2026-04-24 20:11 53.04954 -6.22249 12050 ft 305 kts 318°
2026-04-24 20:11 53.06532 -6.24590 11732 ft 304 kts 318°
2026-04-24 20:12 53.08104 -6.26924 11411 ft 302 kts 318°
2026-04-24 20:12 53.09687 -6.29219 11050 ft 302 kts 319°
2026-04-24 20:12 53.11296 -6.31510 10614 ft 306 kts 319°
2026-04-24 20:12 53.12916 -6.33817 10224 ft 307 kts 319°
2026-04-24 20:13 53.14540 -6.36122 9904 ft 305 kts 319°
2026-04-24 20:13 53.16138 -6.38391 9556 ft 298 kts 319°
2026-04-24 20:13 53.17695 -6.40603 9303 ft 289 kts 319°
2026-04-24 20:13 53.19113 -6.42617 9013 ft 279 kts 319°
2026-04-24 20:14 53.20567 -6.44682 8710 ft 269 kts 319°
2026-04-24 20:14 53.21979 -6.46686 8514 ft 263 kts 319°
2026-04-24 20:14 53.23362 -6.48651 8268 ft 261 kts 319°
2026-04-24 20:14 53.24739 -6.50611 7985 ft 259 kts 319°
2026-04-24 20:15 53.26106 -6.52555 7696 ft 258 kts 319°
2026-04-24 20:15 53.27474 -6.54496 7415 ft 257 kts 319°
2026-04-24 20:15 53.28831 -6.56422 7161 ft 256 kts 319°
2026-04-24 20:15 53.30186 -6.58344 6886 ft 254 kts 319°
2026-04-24 20:16 53.31530 -6.60250 6622 ft 253 kts 319°
2026-04-24 20:16 53.32871 -6.62155 6335 ft 252 kts 319°
2026-04-24 20:16 53.34208 -6.64053 6030 ft 252 kts 319°
2026-04-24 20:16 53.35524 -6.65919 5744 ft 251 kts 319°
2026-04-24 20:17 53.36889 -6.67721 5454 ft 250 kts 331°
2026-04-24 20:17 53.40243 -6.68751 4855 ft 248 kts 358°
2026-04-24 20:17 53.41874 -6.68901 4594 ft 246 kts 358°
2026-04-24 20:18 53.43026 -6.68886 4386 ft 245 kts 12°
2026-04-24 20:18 53.44968 -6.67257 4005 ft 235 kts 50°
2026-04-24 20:18 53.45775 -6.64960 3710 ft 227 kts 78°
2026-04-24 20:18 53.45825 -6.62384 3443 ft 220 kts 102°
2026-04-24 20:19 53.45580 -6.59898 3341 ft 211 kts 101°
2026-04-24 20:19 53.45393 -6.57516 3255 ft 202 kts 99°
2026-04-24 20:19 53.45246 -6.55235 3174 ft 191 kts 98°
2026-04-24 20:19 53.45117 -6.53077 3060 ft 183 kts 98°
2026-04-24 20:20 53.44993 -6.50943 2854 ft 185 kts 98°
2026-04-24 20:20 53.44871 -6.48792 2635 ft 185 kts 98°